Location: Beaucourt-en-Santerre
(49.7918°N, 2.5851°E)
Time: 02:21:44
(UTC+00:00)

Daily predictions for brighter satellites

Satellite Brightness Start Highest point End
(mag) Time Altitude Azimuth Time Altitude Azimuth Time Altitude Azimuth
BREEZE-M DEB (TANK) 4.4 00:01:07 10° W 00:05:15 72° SSW 00:20:52 10° ESE
Cosmos 1937 Rocket 4.5 00:04:13 23° SSE 00:06:43 35° ESE 00:11:26 10° NE
Cosmos 923 Rocket 4.3 00:01:53 10° NNW 00:07:08 63° ENE 00:11:00 18° SE
Cosmos 1674 Rocket 4.3 00:05:41 24° SW 00:07:57 45° WNW 00:12:07 10° N
SL-12 R/B(2) 4.4 00:02:26 18° SSW 00:08:52 78° SE 00:18:47 10° NE
Okean 2 Rocket 4.3 00:10:10 10° NNW 00:14:05 31° W 00:16:03 22° SW
Cosmos 1898 Rocket 3.8 00:13:33 28° S 00:16:07 54° ESE 00:21:10 10° NNE
ALOS 2 4.3 00:17:02 17° WSW 00:18:46 21° W 00:22:10 10° NW
GEOS 3 Rocket 4.2 00:15:06 10° NE 00:19:58 41° ESE 00:22:15 26° S
Cosmos 2074 Rocket 4.4 00:21:27 21° SW 00:25:31 55° WNW 00:31:39 10° N
CZ-2D R/B 4.3 00:28:19 10° NE 00:31:16 15° E 00:34:11 10° ESE
In-Cosmos 22 Rocket 4.4 00:27:54 25° S 00:31:23 71° E 00:37:13 10° NNE
Cosmos 1606 3.1 00:30:02 10° N 00:33:33 52° ENE 00:35:20 25° SE
Helios 1A Rocket 3.5 00:32:17 19° SE 00:34:43 48° ENE 00:38:23 10° N
Cosmos 1869 3.5 00:33:56 10° N 00:37:36 59° ENE 00:39:31 26° SSE
SL-16 R/B 2.8 00:35:08 10° NW 00:40:25 40° WSW 00:43:10 25° SSW
Cosmos 2341 Rocket 4.1 00:36:54 22° S 00:40:58 69° E 00:47:11 10° NNE
CZ-2C R/B 4.3 00:36:27 10° ESE 00:41:01 30° ENE 00:45:42 10° N
CENTAUR R/B 2.8 00:35:46 13° SW 00:41:02 69° NW 00:48:24 10° NE
USA 234 4.3 00:34:56 10° ENE 00:41:11 48° N 00:47:24 10° WNW
Cosmos 2237 Rocket 4.2 00:41:44 10° WNW 00:43:55 12° W 00:46:00 10° WSW
Cosmos 1461 2.7 00:43:01 32° SSW 00:44:41 71° SE 00:48:34 10° NE
Cosmos 1603 4.3 00:40:02 10° NNW 00:45:44 57° NE 00:51:21 10° SE
Cosmos 1680 Rocket 3.4 00:42:41 10° NNW 00:47:56 84° WSW 00:51:38 20° SSE
Cosmos 2228 3.6 00:44:21 10° N 00:48:36 53° ENE 00:51:38 18° SSE
Cosmos 292 Rocket 4.1 00:48:11 23° SW 00:51:07 61° WNW 00:55:55 10° NNE
CRYOSAT 2 4.4 00:46:17 10° N 00:51:13 85° E 00:54:08 25° S
Cosmos 1943 3.2 00:45:42 10° NNW 00:51:22 89° ENE 00:56:23 13° SSE
Cosmos 2227 Rocket 3.4 00:46:35 10° WSW 00:51:49 37° NW 00:57:06 10° NNE
Cosmos 2112 Rocket 3.9 00:46:43 10° NNW 00:51:56 90° W 00:55:57 17° SSE
Cosmos 2082 3.7 00:48:24 23° SSW 00:52:05 81° WNW 00:57:45 10° NNE
Aureole 1 Rocket 3.6 00:53:40 23° SW 00:55:56 51° WNW 01:00:42 10° NNE
Resurs 1-4 Rocket 3.7 00:54:34 10° NE 00:58:57 26° E 01:03:20 10° SSE
USA 238 DEB 4.2 00:59:38 20° S 01:03:26 42° ESE 01:09:39 10° NE
USA 238 4.2 00:59:40 20° S 01:03:29 41° ESE 01:09:42 10° NE
BREEZE-M DEB (TANK) 2.9 00:59:29 10° WNW 01:04:05 29° SW 01:04:15 29° SW
H-2A R/B 3.6 01:05:12 10° N 01:08:41 25° WNW 01:11:28 13° WSW
BlueWalker 3 2.6 01:05:32 10° WNW 01:09:13 54° N 01:12:55 10° E
Cosmos 1818 4.1 01:04:16 10° NW 01:09:23 40° WSW 01:12:28 21° S
Cosmos 2218 Rocket 4.0 01:07:06 21° S 01:11:30 88° E 01:17:42 10° N
Cosmos 1544 Rocket 3.6 01:07:38 10° NNW 01:12:04 69° W 01:14:43 23° S
Cosmos 2297 Rocket 4.4 01:08:08 10° W 01:12:12 20° NW 01:16:16 10° N
Cosmos 2366 rocket 4.0 01:08:29 21° S 01:12:55 87° W 01:19:11 10° N
Cosmos 372 Rocket 4.4 01:15:43 19° SW 01:19:21 57° WNW 01:24:31 10° NNE
Cosmos 2219 4.2 01:14:58 12° WSW 01:19:53 39° NW 01:25:09 10° NNE
CZ-4C R/B 4.4 01:19:54 10° WNW 01:24:22 26° NNW 01:29:47 10° NE
Cosmos 494 Rocket 4.1 01:19:15 10° NNW 01:24:31 82° ENE 01:29:46 10° SSE
Cosmos 921 Rocket 3.1 01:23:18 10° NNW 01:27:32 74° ENE 01:31:42 10° SSE
Cosmos 1975 Rocket 4.2 01:25:49 17° SW 01:28:29 32° WNW 01:32:28 10° N
Cosmos 2227 4.3 01:26:28 20° SSW 01:30:35 83° ESE 01:36:24 10° NNE
IDEFIX/ARIANE 42P 2.9 01:28:24 10° NNE 01:33:37 63° ESE 01:37:48 16° S
BREEZE-M DEB (TANK) 4.5 01:31:46 10° W 01:35:32 85° S 01:48:43 10° ESE
Cosmos 1844 4.3 01:32:48 16° S 01:37:12 51° ESE 01:42:49 10° NE
Cosmos 2263 Rocket 3.2 01:33:26 11° WSW 01:38:21 39° NW 01:43:34 10° NNE
NOSS 3-2 (A) 4.2 01:33:32 10° WSW 01:38:48 48° NW 01:45:09 10° NE
MSX 4.2 01:33:09 10° NNE 01:38:50 61° ESE 01:43:47 14° S
SL-8 Rocket 4.4 01:37:14 17° SW 01:41:49 50° WNW 01:47:52 10° N
NOSS 3-2 (C) 3.5 01:42:25 14° SW 01:47:03 72° NW 01:53:31 10° NE
Cosmos 1606 Rocket 3.7 01:42:51 10° N 01:47:19 79° ENE 01:51:44 10° SSE
Cosmos 1937 Rocket 4.4 01:44:19 14° SW 01:48:34 40° WNW 01:53:30 10° NNE
Meteor 2-13 Rocket 4.5 01:43:22 10° NNW 01:49:26 69° W 01:55:06 12° S
CZ-2C R/B 3.5 01:48:19 10° NNE 01:53:38 58° E 01:58:24 11° S
Genesis I 3.9 01:51:10 10° NNW 01:54:43 52° NE 01:58:16 10° ESE
Cosmos 1844 Rocket 2.7 01:51:37 16° SSW 01:56:06 78° ESE 02:01:42 10° NNE
Iridium 2 4.5 01:54:19 10° SSE 01:56:22 25° E 01:58:27 10° NNE
GEOS 3 Rocket 4.3 01:53:04 10° NE 01:58:04 50° NW 02:03:00 10° WSW
Cosmos 1536 Rocket 3.9 01:54:56 17° SSW 01:58:09 54° WNW 02:02:29 10° N
SL-16 R/B 3.1 01:52:27 10° SE 01:58:36 62° ENE 02:04:44 10° N
Cosmos 1867 3.6 01:55:11 16° SW 01:59:39 89° WNW 02:05:11 10° NE
Cosmos 1726 Rocket 3.6 01:56:44 10° N 02:01:12 82° E 02:05:36 10° SSE
Cosmos 2239 Rocket 4.5 01:55:59 13° S 02:01:38 88° E 02:07:49 10° N
Cosmos 1727 Rocket 4.2 01:57:29 10° NNW 02:03:41 58° W 02:09:39 11° SSW
H-2A R/B 3.4 02:02:43 10° N 02:06:43 75° WNW 02:10:00 15° SSW
Cosmos 1238 Rocket 3.9 02:08:04 10° N 02:11:08 34° ENE 02:13:54 10° SE
CZ-2D R/B 2.1 02:06:41 10° NNE 02:12:03 90° NW 02:17:02 12° SSW
USA 81 4.4 02:08:10 10° N 02:13:26 66° E 02:18:40 10° SSE
ALOS 3.4 02:09:46 10° NNE 02:14:08 40° E 02:18:28 10° SSE
ADEOS II 2.3 02:10:35 10° NNE 02:15:51 69° ESE 02:21:04 10° S
Cosmos 1437 Rocket 3.4 02:16:19 14° SW 02:19:14 39° WNW 02:22:47 10° N
CZ-2C R/B 3.0 02:15:54 10° S 02:21:02 49° W 02:26:20 10° NNW
USA 234 4.1 02:17:16 10° E 02:23:38 56° NNE 02:30:00 10° WNW
Alouette 2 Rocket 3.6 02:19:34 10° S 02:23:43 63° ESE 02:27:15 10° NNE
AQUA 4.1 02:20:11 10° NNE 02:24:54 67° ESE 02:29:36 10° S
Cosmos 1607 4.3 02:18:53 10° NW 02:24:56 45° WSW 02:30:50 10° S
ASTEX 1 3.4 02:22:18 10° S 02:27:10 78° W 02:32:03 10° N
FENGYUN 3A 3.7 02:22:42 10° NNE 02:28:07 85° ESE 02:33:31 10° SSW
ATLAS 5 CENTAUR R/B 2.8 02:27:26 10° S 02:30:03 22° ESE 02:32:51 10° ENE
Cosmos 1812 2.5 02:26:36 10° NNW 02:30:11 70° W 02:33:43 10° S
CENTAUR R/B 4.4 02:27:14 10° WNW 02:33:03 32° NNW 02:40:01 10° NE
Resurs 1-4 Rocket 2.5 02:33:54 10° N 02:39:03 53° WNW 02:44:10 10° SW
NPP 4.3 02:35:05 10° N 02:40:09 43° WNW 02:45:12 10° SW
Timation 2 Rocket 4.1 02:37:39 10° SSW 02:44:15 83° ESE 02:50:34 10° NNE
Cosmos 2058 2.9 02:40:46 10° S 02:44:49 88° W 02:48:57 10° N
BlueWalker 3 1.9 02:43:46 10° WNW 02:47:27 57° SSW 02:51:08 10° SE
Cosmos 1892 Rocket 3.9 02:43:50 10° SSW 02:48:09 55° WNW 02:52:33 10° N
SAR-Lupe-4 4.0 02:44:43 10° NNE 02:48:15 59° ESE 02:51:46 10° S
Meteor 2-19 Rocket 4.5 02:42:41 10° NNW 02:48:51 74° W 02:54:59 10° S
Cosmos 2058 Rocket 3.2 02:45:26 10° NNW 02:49:48 60° W 02:54:07 10° S
ATLAS CENTAUR R/B 4.1 02:50:47 10° NNW 02:53:57 24° NE 02:57:15 10° E
USA 238 DEB 4.1 02:47:59 10° WSW 02:54:12 56° NW 03:01:02 10° NE
USA 238 4.1 02:48:01 10° WSW 02:54:14 56° NW 03:01:05 10° NE
Envisat 3.7 02:53:49 10° NNE 02:58:49 54° E 03:03:46 10° S
